This is the latest recevied weather packets stored in our database for station/object KY4JDC. If no packets are shown the sender has not sent any weather packets the latest 1 day(s).
| Time | Temp. | Humidity | Pressure | Rain* | Wind** | Luminosity | Snow |
|---|---|---|---|---|---|---|---|
| 1778058867 | 8.33° C | 95% | 1013.4 hPa | 1.27 mm | - | 0 W/m² | - |
| 1778057351 | 8.33° C | 95% | 1012.7 hPa | 3.05 mm | - | 0 W/m² | - |
| 1778057048 | 8.33° C | 95% | 1012.7 hPa | 0 mm | - | 0 W/m² | - |
| 1778056744 | 8.89° C | 95% | 1012.6 hPa | 0 mm | - | 0 W/m² | - |
| 1778055835 | 8.89° C | 95% | 1012.3 hPa | 0 mm | - | 0 W/m² | - |
| 1778055531 | 8.89° C | 96% | 1012.4 hPa | 0 mm | - | 0 W/m² | - |
| 1778055230 | 8.89° C | 96% | 1012.1 hPa | 0 mm | - | 0 W/m² | - |
| 1778054927 | 8.89° C | 96% | 1012.3 hPa | 0 mm | - | 0 W/m² | - |
| 1778053110 | 9.44° C | 96% | 1012.1 hPa | 0 mm | - | 0 W/m² | - |
| 1778052807 | 9.44° C | 97% | 1012.1 hPa | 0 mm | - | 0 W/m² | - |
| 1778052504 | 9.44° C | 96% | 1012.1 hPa | 0 mm | - | 0 W/m² | - |
| 1778052202 | 9.44° C | 97% | 1012.4 hPa | 0 mm | - | 0 W/m² | - |
| 1778051294 | 9.44° C | 97% | 1012.6 hPa | 1.78 mm | - | 0 W/m² | - |
| 1778050991 | 9.44° C | 97% | 1012.3 hPa | 4.83 mm | - | 0 W/m² | - |
| 1778050386 | 9.44° C | 96% | 1012.4 hPa | 0 mm | - | 0 W/m² | - |
| 1778049475 | 9.44° C | 96% | 1012.7 hPa | 1.27 mm | - | 0 W/m² | - |
| 1778048568 | 10° C | 96% | 1012.1 hPa | 27.69 mm | - | 0 W/m² | - |
| 1778048264 | 10° C | 96% | 1012 hPa | 22.86 mm | - | 0 W/m² | - |
| 1778046750 | 10° C | 96% | 1011.3 hPa | 6.1 mm | - | 0 W/m² | - |
| 1778046144 | 10° C | 96% | 1011.5 hPa | 1.78 mm | - | 0 W/m² | - |
| 1778045841 | 10° C | 96% | 1011.1 hPa | 1.78 mm | - | 0 W/m² | - |
| 1778045540 | 10° C | 96% | 1010.9 hPa | 0 mm | - | 0 W/m² | - |
| 1778045237 | 10° C | 97% | 1010.9 hPa | 0 mm | - | 0 W/m² | - |
| 1778044633 | 10° C | 97% | 1011.1 hPa | 0 mm | - | 0 W/m² | - |
| 1778044329 | 10° C | 97% | 1011.1 hPa | 0 mm | - | 0 W/m² | - |
* Rain latest hour (hover to see other rain measurements)
** Current wind speed in m/s (hover to see current wind gust speed)